Blythe, CA

6:52 AM PDT on August 29, 2016 (GMT -0700)
Blythe

Weather History for KBLH - April, 2013

Change the Weather History Date:

Thursday, April 18, 2013

  Actual Average Record
Temperature  
Mean Temperature 65 °F -  
Max Temperature 77 °F 84 °F 101 °F (1994)
Min Temperature 55 °F 55 °F 42 °F (1975)
Growing Degree Days 15 (Base 50)    
Moisture  
Dew Point 10 °F    
Average Humidity 12    
Maximum Humidity 19    
Minimum Humidity 7    
Precipitation  
Precipitation 0.00 in - - ()
Sea Level Pressure  
Sea Level Pressure 30.14 in    
Wind  
Wind Speed 13 mph (NNW)    
Max Wind Speed 23 mph    
Max Gust Speed 33 mph    
Visibility 10 miles    
Events      
Averages and records for this station are not official NWS values.
T = Trace of Precipitation, MM = Missing Value Source: NWS Daily Summary

Daily Weather History Graph

Daily Weather History Graph

Search for Another Location

Airport or City:

Trip Planner

Search our weather history database for the weather conditions in past years. The results will help you decide how hot, cold, wet, or windy it might be!

Date:

Astronomy

Apr. 18, 2013 Rise Set
Actual Time 6:04 AM PDT 7:12 PM PDT
Civil Twilight 5:38 AM PDT 7:38 PM PDT
Nautical Twilight 5:07 AM PDT 8:08 PM PDT
Astronomical Twilight 4:36 AM PDT 8:40 PM PDT
Moon 12:23 PM PDT (4/18) 1:25 AM PDT (4/18)
Length of Visible Light 13h 59m
Length of Day
13h 08m
First Quarter, 53% of the Moon is Illuminated
Apr 18
First Quarter
Apr 25
Full
May 2
Last Quarter
May 9
New
May 17
First Quarter

Hourly Weather History & Observations

Time (PDT) Temp. Dew Point Humidity Pressure Visibility Wind Dir Wind Speed Gust Speed Precip Events Conditions
12:52 AM 55.9 °F 10.0 °F 16% 30.09 in 10.0 mi NNW 8.1 mph - N/A   Clear
1:52 AM 59.0 °F 10.9 °F 15% 30.10 in 10.0 mi NNW 11.5 mph - N/A   Clear
2:52 AM 60.1 °F 14.0 °F 16% 30.10 in 10.0 mi NNW 12.7 mph - N/A   Clear
3:52 AM 57.9 °F 12.9 °F 17% 30.12 in 10.0 mi NNW 15.0 mph - N/A   Clear
4:52 AM 60.1 °F 16.0 °F 18% 30.14 in 10.0 mi North 16.1 mph - N/A   Clear
5:52 AM 59.0 °F 16.0 °F 19% 30.16 in 10.0 mi NNW 16.1 mph - N/A   Clear
6:52 AM 60.1 °F 16.0 °F 18% 30.19 in 10.0 mi NNW 11.5 mph - N/A   Clear
7:52 AM 63.0 °F 17.1 °F 17% 30.21 in 10.0 mi North 19.6 mph - N/A   Clear
8:52 AM 66.0 °F 16.0 °F 15% 30.21 in 10.0 mi North 19.6 mph - N/A   Clear
9:52 AM 68.0 °F 12.0 °F 11% 30.21 in 10.0 mi North 20.7 mph 28.8 mph N/A   Unknown
10:52 AM 70.0 °F 10.9 °F 10% 30.21 in 10.0 mi North 18.4 mph 26.5 mph N/A   Clear
11:52 AM 72.0 °F 8.1 °F 8% 30.19 in 10.0 mi NNW 23.0 mph 33.4 mph N/A   Clear
12:52 PM 73.0 °F 9.0 °F 8% 30.18 in 10.0 mi North 16.1 mph 26.5 mph N/A   Clear
1:52 PM 75.0 °F 8.1 °F 8% 30.16 in 10.0 mi North 17.3 mph 27.6 mph N/A   Clear
2:52 PM 75.0 °F 6.1 °F 7% 30.13 in 10.0 mi NNW 15.0 mph 23.0 mph N/A   Clear
3:52 PM 75.9 °F 7.0 °F 7% 30.11 in 10.0 mi North 17.3 mph 26.5 mph N/A   Clear
4:52 PM 75.9 °F 7.0 °F 7% 30.09 in 10.0 mi NNE 12.7 mph 24.2 mph N/A   Clear
5:52 PM 75.0 °F 5.0 °F 7% 30.09 in 10.0 mi North 15.0 mph 25.3 mph N/A   Clear
6:52 PM 73.9 °F 3.9 °F 7% 30.10 in 10.0 mi North 13.8 mph - N/A   Clear
7:52 PM 70.0 °F 5.0 °F 8% 30.11 in 10.0 mi North 9.2 mph - N/A   Clear
8:52 PM 66.9 °F 6.1 °F 9% 30.13 in 10.0 mi NNW 6.9 mph - N/A   Clear
9:52 PM 66.0 °F 6.1 °F 9% 30.14 in 10.0 mi WNW 4.6 mph - N/A   Clear
10:52 PM 62.1 °F 6.1 °F 11% 30.13 in 10.0 mi NW 8.1 mph - N/A   Clear
11:52 PM 64.0 °F 8.1 °F 11% 30.13 in 10.0 mi NNW 8.1 mph - N/A   Clear